Location: Bathurst
(33.4193°S, 149.5775°E)
Time: 09:27:15
(UTC+10:00)

Vanguard 1 Rocket - Pass Details

Date: 23 June 2021
Orbit: 650 x 4226 km, 34.3° (Epoch: 02 August)

Event Time Altitude Azimuth Distance (km) Brightness Sun altitude
Rises 07:30:31 0° 304° (WNW) 8,458 12.1 3.7°
Reaches altitude 10° 07:36:33 10° 305° (NW) 7,402 11.8 4.7°
Maximum altitude 08:01:17 71° 23° (NNE) 3,330 10.7 9.0°
Drops below altitude 10° 08:15:25 10° 103° (ESE) 4,594 11.6 11.4°
Sets 08:18:11 0° 105° (ESE) 5,243 11.8 11.8°
